Regional Weather Roundup
Issued by NWS

Home | Current Version | Previous Version | Text Only | Print | Product List | Glossary Off
Versions: 1 2 3 4 5 6 7 8 9 10 11 12 13 14 15 16 17 18 19 20 21 22 23 24 25 26 27 28 29 30 31 32 33 34 35 36 37 38 39 40 41 42 43 44 45 46 47 48 49 50

000
ASUS45 KABQ 221310
RWRNM
NEW MEXICO REGIONAL WEATHER ROUNDUP
NATIONAL WEATHER SERVICE ALBUQUERQUE NM
700 AM MDT SUN OCT 22 2017

NOTE: "FAIR" MEANS FEW OR NO CLOUDS BELOW 12,000 FEET AGL WITH NO
       SIGNIFICANT WEATHER OR OBSTRUCTIONS TO VISION.

      THIS PRODUCT IS RELEASED AS TWO VERSIONS.  ONE VERSION NEAR
      THE TOP OF THE HOUR CONTAINING PRELIMINARY DATA FROM ALBUQUERQUE
      AND OTHER STATIONS.  A FINAL VERSION WITH ADDITIONAL DATA IS
      ISSUED ABOUT 10 MINUTES AFTER THE HOUR.

NMZ501-503-504-510>518-221400-
NORTHWEST PLATEAU/NORTHCENTRAL MOUNTAINS

CITY           SKY/WX    TMP DP  RH WIND       PRES   REMARKS
FARMINGTON     FAIR      31  13  47 E8        30.36S WCI  23
LOS ALAMOS     FAIR      40   3  21 CALM      30.38F
SANTA FE       FAIR      36   9  32 N12       30.36R WCI  28
TAOS           FAIR      20   8  60 N6        30.43S WCI  12
ANGEL FIRE     FAIR      22   9  55 CALM      30.39R

$$
NMZ402-403-502-505>509-221400-
WESTCENTRAL MOUNTAINS/SOUTHWEST MOUNTAINS

CITY           SKY/WX    TMP DP  RH WIND       PRES   REMARKS
GALLUP         FAIR      24   8  50 CALM      30.42R
GRANTS         FAIR      26  15  65 CALM      30.44S
SILVER CITY    FAIR      36  14  41 N6        30.34R WCI  31

$$
NMZ407-409-411-412-221400-
SOUTHERN DESERTS

CITY           SKY/WX    TMP DP  RH WIND       PRES   REMARKS
DEMING         FAIR      50  18  28 E9        30.31R
LAS CRUCES     FAIR      52  14  22 N10       30.31R
HOLLOMAN AFB   FAIR      42  24  49 W12       30.32R
ALAMOGORDO     FAIR      45  23  42 NW8       30.30R
T OR C         FAIR      49   9  19 N9        30.33S

$$
NMZ519>523-221400-
CENTRAL VALLEYS/CENTRAL HIGHLANDS

CITY           SKY/WX    TMP DP  RH WIND       PRES   REMARKS
ALBUQUERQUE    FAIR      38   9  30 S8        30.38R WCI  32
DOUBLE EAGLE   CLEAR     39   7  26 NW10      30.38S WCI  32
MORIARTY ARPT  FAIR      36   9  33 W7        30.37S WCI  30
CLINES CORNERS NOT AVBL
BELEN          FAIR      37  11  34 NW6       30.39R WCI  32
SOCORRO        FAIR      37  11  34 NW5       30.38S WCI  33

$$
NMZ524>526-539-540-221400-
SOUTHCENTRAL MOUNTAINS

CITY           SKY/WX    TMP DP  RH WIND       PRES   REMARKS
RUIDOSO        FAIR      45   0  15 W7        30.39S

$$
NMZ527>531-221400-
NORTHEAST HIGHLANDS/NORTHEAST PLAINS

CITY           SKY/WX    TMP DP  RH WIND       PRES   REMARKS
LAS VEGAS      FAIR      33  19  56 NW5       30.33R WCI  29
RATON          FAIR      28  24  85 VRB3      30.29S
CLAYTON        FAIR      32  17  54 W9        30.28S HAZE    WCI  24

$$
NMZ532>537-221400-
EASTCENTRAL PLAINS

CITY           SKY/WX    TMP DP  RH WIND       PRES   REMARKS
SANTA ROSA     FAIR      33  29  85 S7        30.29F WCI  27
TUCUMCARI      FAIR      35  31  85 W3        30.29R
CANNON AFB     CLEAR     37  36  96 N8        30.32R WCI  31
CLOVIS AIRPORT FAIR      36  31  82 NW5       30.32R WCI  32

$$
NMZ028-029-538-221400-
SOUTHEAST PLAINS

CITY           SKY/WX    TMP DP  RH WIND       PRES   REMARKS
ROSWELL        FAIR      42  30  62 N3        30.32R
ARTESIA        FAIR      41  30  65 W8        30.33R
CARLSBAD       FAIR      41  36  82 W7        30.30R
HOBBS          CLEAR     41  36  81 N9        30.30R


$$




USA.gov is the U.S. government's official web portal to all federal, state and local government web resources and services.